Location: Pinawa
(50.1500°N, 95.8830°W)
Time: 08:47:31
(UTC-05:00)

Amateur Radio Satellites - All Passes

Search period start: 23 October 2014 08:17
Search period end: 24 October 2014 08:17
Location: Pinawa, 50.1500°N, 95.8830°W

Satellite Date Start Highest point End Downlink Frequencies (MHz)
Time Altitude Azimuth
RS-15 23 Oct 08:58:03 09:08:39 53° 245° (WSW) 09:19:40 29.354 - 29.394 USB, Beacon 29.352 USB
Sapphire 23 Oct 08:58:21 09:01:18 15° 348° (NNW) 09:04:15 437.095 MHz 1200 baud AX-25 AFSK
SO-67 23 Oct 08:59:32 09:02:56 55° 287° (WNW) 09:06:19 435.3500 MHz FM
HO-68 23 Oct 09:02:32 09:07:22 19° 87° (E) 09:12:11 435.675 MHz FM
Saudisat 1A 23 Oct 09:07:05 09:11:23 57° 125° (SE) 09:15:43 436.775 MHz
MaSat-1 23 Oct 09:14:30 09:17:02 28° 49° (NE) 09:19:21 437.345 MHz
PCSat 23 Oct 09:22:06 09:24:43 13° 355° (N) 09:27:20 145.825 MHz
JAS-2 23 Oct 09:29:24 09:34:40 21° 311° (NW) 09:40:05 435.800 - 435.900 CW/SSB, 435.910 FM
AO-7 23 Oct 10:04:54 10:07:11 11° 338° (NNW) 10:09:29 29.400 - 29.500 MHz
Oscar 11 23 Oct 10:12:59 10:16:00 18° 90° (E) 10:19:01 145.825 FM, Beacon 2401.500 USB
Sapphire 23 Oct 10:43:57 10:47:04 15° 15° (NNE) 10:50:11 437.095 MHz 1200 baud AX-25 AFSK
Saudisat 1A 23 Oct 10:47:20 10:51:14 30° 326° (NW) 10:55:09 436.775 MHz
HO-68 23 Oct 10:48:55 10:56:10 83° 107° (ESE) 11:03:23 435.675 MHz FM
MaSat-1 23 Oct 10:50:49 10:52:26 15° 252° (WSW) 10:53:59 437.345 MHz
ZACube-1 23 Oct 10:57:07 11:00:32 22° 92° (E) 11:03:51 437.345 MHz
UKube-1 23 Oct 11:05:05 11:09:25 59° 102° (ESE) 11:13:44 145.840 MHz, 145.915 MHz
PCSat 23 Oct 11:06:47 11:10:25 18° 21° (NNE) 11:14:02 145.825 MHz
RS-15 23 Oct 11:14:20 11:18:12 12° 268° (W) 11:22:07 29.354 - 29.394 USB, Beacon 29.352 USB
KITSAT 1 23 Oct 11:30:49 11:33:55 13° 97° (E) 11:37:01 435.175 FM
FUNcube-1 23 Oct 11:41:46 11:46:03 60° 101° (E) 11:50:12 145.950 - 145.970 MHz USB
Oscar 11 23 Oct 11:48:19 11:52:32 55° 289° (WNW) 11:56:45 145.825 FM, Beacon 2401.500 USB
Oscar 16 23 Oct 11:50:21 11:51:15 10° 48° (NE) 11:52:10 437.025 USB, Beacon 2401.1428
Sapphire 23 Oct 12:27:11 12:32:10 35° 39° (NE) 12:37:07 437.095 MHz 1200 baud AX-25 AFSK
Saudisat 1A 23 Oct 12:29:52 12:32:09 14° 349° (N) 12:34:27 436.775 MHz
ZACube-1 23 Oct 12:33:03 12:37:10 44° 291° (WNW) 12:41:10 437.345 MHz
HO-68 23 Oct 12:37:23 12:43:11 27° 309° (NW) 12:48:59 435.675 MHz FM
Oscar 19 23 Oct 12:40:16 12:44:18 24° 59° (ENE) 12:48:21 437.125 CW, 437.150 USB
UKube-1 23 Oct 12:42:05 12:45:14 20° 301° (WNW) 12:48:23 145.840 MHz, 145.915 MHz
PCSat 23 Oct 12:49:53 12:55:10 48° 45° (NE) 13:00:25 145.825 MHz
AO-27 23 Oct 12:55:05 12:58:14 16° 53° (NE) 13:01:23 436.795 MHz FM
JAS-1B 23 Oct 12:56:17 13:01:13 30° 59° (ENE) 13:06:04 435.800 - 435.900 CW/SSB
Oscar 10/S400 23 Oct 13:15:31 13:27:03 17° 145° (SE) 13:38:50 145.825 - 145.975 CW/USB, Beacon 145.810 USB
FUNcube-1 23 Oct 13:19:02 13:22:01 19° 300° (WNW) 13:24:57 145.950 - 145.970 MHz USB
KITSAT 1 23 Oct 13:19:44 13:27:33 57° 118° (ESE) 13:35:25 435.175 FM
Oscar 16 23 Oct 13:24:31 13:29:30 52° 68° (ENE) 13:34:30 437.025 USB, Beacon 2401.1428
AO-Echo 23 Oct 13:32:58 13:37:21 33° 63° (ENE) 13:41:52 ?
AO-7 23 Oct 13:40:49 13:45:31 17° 33° (NNE) 13:50:13 29.400 - 29.500 MHz
Uribyol 2 23 Oct 13:41:34 13:46:17 36° 63° (ENE) 13:51:02 436.500 FM
ITAMSAT 1 23 Oct 13:47:08 13:51:53 37° 64° (ENE) 13:56:41 435.822 SSB
Gurwin Techsat 1B 23 Oct 13:58:15 14:02:39 27° 60° (ENE) 14:07:04 435.225 FM
Sapphire 23 Oct 14:10:33 14:15:53 57° 241° (WSW) 14:21:11 437.095 MHz 1200 baud AX-25 AFSK
TMSAT-1 23 Oct 14:10:35 14:14:55 26° 60° (ENE) 14:19:17 436.925 FM
Saudisat 1A 23 Oct 14:11:00 14:13:30 15° 14° (NNE) 14:16:01 436.775 MHz
Oscar 19 23 Oct 14:18:10 14:23:16 62° 258° (WSW) 14:28:24 437.125 CW, 437.150 USB
SO-50 23 Oct 14:22:02 14:26:28 57° 124° (SE) 14:31:03 436.795 FM
AO-27 23 Oct 14:31:46 14:37:00 83° 73° (ENE) 14:42:16 436.795 MHz FM
PCSat 23 Oct 14:33:33 14:38:30 37° 246° (WSW) 14:43:25 145.825 MHz
ISS 23 Oct 14:35:08 14:38:07 31° 147° (SSE) 14:41:08 145.800 FM
JAS-1B 23 Oct 14:46:02 14:51:46 50° 260° (W) 14:57:17 435.800 - 435.900 CW/SSB
Oscar 16 23 Oct 15:04:51 15:09:08 26° 267° (W) 15:13:27 437.025 USB, Beacon 2401.1428
AO-Echo 23 Oct 15:11:27 15:16:02 40° 263° (W) 15:20:49 ?
KITSAT 1 23 Oct 15:15:21 15:23:11 50° 321° (NW) 15:31:02 435.175 FM
Uosat F 23 Oct 15:17:50 15:21:13 19° 55° (NE) 15:24:38 435.120 FM
Uribyol 2 23 Oct 15:20:50 15:25:43 40° 263° (W) 15:30:39 436.500 FM
ITAMSAT 1 23 Oct 15:26:34 15:31:23 38° 263° (W) 15:36:16 435.822 SSB
AO-7 23 Oct 15:28:37 15:36:25 48° 57° (ENE) 15:44:14 29.400 - 29.500 MHz
Gurwin Techsat 1B 23 Oct 15:37:07 15:42:19 55° 260° (W) 15:47:34 435.225 FM
TMSAT-1 23 Oct 15:49:19 15:54:31 57° 259° (W) 15:59:47 436.925 FM
Saudisat 1A 23 Oct 15:50:13 15:54:19 35° 37° (NE) 15:58:24 436.775 MHz
UOSAT-12 23 Oct 15:53:54 15:58:21 47° 122° (ESE) 16:02:54 437.025 FM, 437.400 FM
SO-50 23 Oct 16:03:11 16:07:18 32° 326° (NW) 16:11:33 436.795 FM
ISS 23 Oct 16:11:17 16:14:38 83° 347° (NNW) 16:17:59 145.800 FM
AO-27 23 Oct 16:13:57 16:17:11 16° 272° (W) 16:20:27 436.795 MHz FM
JAS-2 23 Oct 16:17:12 16:21:55 23° 51° (NE) 16:27:02 435.800 - 435.900 CW/SSB, 435.910 FM
Uosat F 23 Oct 16:54:23 16:59:25 82° 255° (WSW) 17:04:30 435.120 FM
KITSAT 1 23 Oct 17:13:57 17:20:38 27° 349° (N) 17:27:19 435.175 FM
AO-7 23 Oct 17:21:14 17:29:13 51° 259° (W) 17:37:16 29.400 - 29.500 MHz
Hamsat 23 Oct 17:26:01 17:29:41 30° 66° (ENE) 17:33:21 145.90 MHz
Saudisat 1A 23 Oct 17:29:47 17:34:00 45° 238° (WSW) 17:38:12 436.775 MHz
UOSAT-12 23 Oct 17:34:17 17:38:39 37° 323° (NW) 17:43:05 437.025 FM, 437.400 FM
SO-50 23 Oct 17:46:31 17:49:17 15° 350° (N) 17:52:05 436.795 FM
ISS 23 Oct 17:48:08 17:51:29 69° 7° (N) 17:54:49 145.800 FM
JAS-2 23 Oct 17:59:59 18:06:01 89° 255° (WSW) 18:12:57 435.800 - 435.900 CW/SSB, 435.910 FM
OPAL 23 Oct 18:26:32 18:31:17 42° 101° (E) 18:35:58 ?
Uosat F 23 Oct 18:36:52 18:39:02 13° 274° (W) 18:41:11 435.120 FM
Hamsat 23 Oct 19:01:49 19:05:36 32° 264° (W) 19:09:24 145.90 MHz
KITSAT 1 23 Oct 19:11:50 19:18:47 30° 19° (NNE) 19:25:43 435.175 FM
UOSAT-12 23 Oct 19:17:07 19:20:05 16° 346° (NNW) 19:23:04 437.025 FM, 437.400 FM
AO-7 23 Oct 19:23:31 19:24:10 10° 281° (WNW) 19:24:49 29.400 - 29.500 MHz
ISS 23 Oct 19:24:54 19:28:09 50° 206° (SSW) 19:31:24 145.800 FM
SO-50 23 Oct 19:28:37 19:31:41 17° 15° (NNE) 19:34:46 436.795 FM
SO-67 23 Oct 19:36:09 19:39:35 84° 257° (WSW) 19:43:03 435.3500 MHz FM
HO-68 23 Oct 19:36:21 19:42:04 27° 51° (NE) 19:47:48 435.675 MHz FM
JAS-2 23 Oct 19:48:10 19:52:16 18° 277° (W) 19:56:42 435.800 - 435.900 CW/SSB, 435.910 FM
OPAL 23 Oct 20:05:40 20:10:04 32° 300° (WNW) 20:14:25 ?
STRAND 1 23 Oct 20:08:35 20:13:40 54° 101° (E) 20:18:42 ?
UKube-1 23 Oct 20:31:17 20:33:35 14° 56° (NE) 20:35:54 145.840 MHz, 145.915 MHz
UOSAT-12 23 Oct 20:59:13 21:02:04 16° 11° (N) 21:04:55 437.025 FM, 437.400 FM
ISS 23 Oct 21:03:00 21:04:15 12° 224° (SW) 21:05:29 145.800 FM
KITSAT 1 23 Oct 21:07:46 21:15:50 64° 45° (NE) 21:23:50 435.175 FM
FUNcube-1 23 Oct 21:08:39 21:10:56 14° 56° (NE) 21:13:12 145.950 - 145.970 MHz USB
SO-50 23 Oct 21:08:58 21:13:29 39° 38° (NE) 21:18:04 436.795 FM
Oscar 11 23 Oct 21:12:19 21:15:56 27° 64° (ENE) 21:19:33 145.825 FM, Beacon 2401.500 USB
RS-15 23 Oct 21:20:31 21:26:48 17° 96° (E) 21:33:02 29.354 - 29.394 USB, Beacon 29.352 USB
HO-68 23 Oct 21:21:52 21:29:03 85° 252° (WSW) 21:36:18 435.675 MHz FM
STRAND 1 23 Oct 21:48:18 21:52:35 27° 300° (WNW) 21:56:50 ?
ZACube-1 23 Oct 21:57:34 22:01:42 34° 66° (ENE) 22:05:47 437.345 MHz
UKube-1 23 Oct 22:04:47 22:09:09 88° 255° (WSW) 22:13:33 145.840 MHz, 145.915 MHz
UOSAT-12 23 Oct 22:39:17 22:43:36 33° 35° (NE) 22:47:52 437.025 FM, 437.400 FM
FUNcube-1 23 Oct 22:42:04 22:46:39 85° 75° (ENE) 22:51:12 145.950 - 145.970 MHz USB
Oscar 11 23 Oct 22:47:54 22:51:58 39° 262° (W) 22:56:04 145.825 FM, Beacon 2401.500 USB
SO-50 23 Oct 22:49:33 22:54:10 45° 238° (WSW) 22:58:48 436.795 FM
KITSAT 1 23 Oct 23:03:34 23:10:56 41° 248° (WSW) 23:18:16 435.175 FM
HO-68 23 Oct 23:12:54 23:17:49 19° 273° (W) 23:22:45 435.675 MHz FM
RS-15 23 Oct 23:26:02 23:36:48 66° 120° (ESE) 23:47:34 29.354 - 29.394 USB, Beacon 29.352 USB
ZACube-1 23 Oct 23:33:58 23:38:06 33° 264° (W) 23:42:12 437.345 MHz
UKube-1 23 Oct 23:44:39 23:46:01 11° 273° (W) 23:47:24 145.840 MHz, 145.915 MHz
UOSAT-12 24 Oct 00:19:22 00:24:01 56° 236° (SW) 00:28:35 437.025 FM, 437.400 FM
FUNcube-1 24 Oct 00:21:26 00:23:38 13° 273° (W) 00:25:48 145.950 - 145.970 MHz USB
MaSat-1 24 Oct 00:30:48 00:34:28 33° 114° (ESE) 00:37:49 437.345 MHz
Oscar 16 24 Oct 01:33:24 01:35:29 12° 85° (E) 01:37:33 437.025 USB, Beacon 2401.1428
RS-15 24 Oct 01:38:57 01:49:36 54° 328° (NNW) 02:00:24 29.354 - 29.394 USB, Beacon 29.352 USB
MaSat-1 24 Oct 02:06:37 02:10:09 30° 310° (NW) 02:13:21 437.345 MHz
Oscar 10/S400 24 Oct 02:12:46 02:53:03 14° 243° (WSW) 04:04:37 145.825 - 145.975 CW/USB, Beacon 145.810 USB
JAS-1B 24 Oct 02:22:53 02:28:43 34° 96° (E) 02:35:26 435.800 - 435.900 CW/SSB
Oscar 19 24 Oct 02:25:11 02:29:49 33° 95° (E) 02:34:24 437.125 CW, 437.150 USB
AO-27 24 Oct 02:40:52 02:44:49 21° 91° (E) 02:48:43 436.795 MHz FM
Oscar 16 24 Oct 03:10:32 03:15:42 79° 104° (ESE) 03:20:49 437.025 USB, Beacon 2401.1428
AO-Echo 24 Oct 03:13:15 03:18:24 49° 99° (E) 03:23:33 ?
Uribyol 2 24 Oct 03:28:23 03:33:30 52° 100° (E) 03:38:34 436.500 FM
ITAMSAT 1 24 Oct 03:34:09 03:39:19 55° 101° (E) 03:44:25 435.822 SSB
PCSat 24 Oct 03:39:04 03:41:54 14° 104° (ESE) 03:44:43 145.825 MHz
Gurwin Techsat 1B 24 Oct 03:48:30 03:53:34 42° 98° (E) 03:58:35 435.225 FM
RS-15 24 Oct 03:54:48 04:04:48 38° 1° (N) 04:15:02 29.354 - 29.394 USB, Beacon 29.352 USB
TMSAT-1 24 Oct 04:00:22 04:05:23 41° 97° (E) 04:10:22 436.925 FM
Oscar 19 24 Oct 04:04:28 04:09:15 40° 295° (WNW) 04:14:00 437.125 CW, 437.150 USB
OPAL 24 Oct 04:08:38 04:12:39 24° 56° (NE) 04:16:37 ?
JAS-1B 24 Oct 04:13:27 04:19:36 56° 293° (WNW) 04:26:52 435.800 - 435.900 CW/SSB
AO-27 24 Oct 04:19:35 04:24:48 65° 290° (WNW) 04:29:58 436.795 MHz FM
Oscar 16 24 Oct 04:50:56 04:54:29 19° 304° (NW) 04:58:02 437.025 USB, Beacon 2401.1428
AO-Echo 24 Oct 04:52:24 04:56:58 30° 298° (WNW) 05:01:33 ?
Sapphire 24 Oct 04:56:37 05:01:50 51° 118° (ESE) 05:07:05 437.095 MHz 1200 baud AX-25 AFSK
Uosat F 24 Oct 04:58:03 05:01:58 22° 92° (E) 05:05:51 435.120 FM
JAS-2 24 Oct 05:05:22 05:09:25 15° 80° (E) 05:13:30 435.800 - 435.900 CW/SSB, 435.910 FM
Uribyol 2 24 Oct 05:08:20 05:12:44 28° 300° (WNW) 05:17:05 436.500 FM
ITAMSAT 1 24 Oct 05:14:11 05:18:31 27° 300° (WNW) 05:22:49 435.822 SSB
AO-7 24 Oct 05:16:58 05:24:51 44° 99° (E) 05:32:42 29.400 - 29.500 MHz
PCSat 24 Oct 05:19:01 05:24:26 79° 123° (ESE) 05:29:53 145.825 MHz
Gurwin Techsat 1B 24 Oct 05:28:41 05:33:27 34° 297° (WNW) 05:38:12 435.225 FM
TMSAT-1 24 Oct 05:40:28 05:45:16 35° 296° (WNW) 05:50:02 436.925 FM
OPAL 24 Oct 05:46:02 05:51:09 65° 255° (WSW) 05:56:13 ?
STRAND 1 24 Oct 05:51:45 05:55:37 22° 58° (ENE) 05:59:30 ?
AO-27 24 Oct 06:00:58 06:03:22 13° 310° (NW) 06:05:47 436.795 MHz FM
JAS-1B 24 Oct 06:06:19 06:09:11 13° 313° (NW) 06:12:12 435.800 - 435.900 CW/SSB
RS-15 24 Oct 06:09:11 06:20:00 55° 33° (NNE) 06:31:11 29.354 - 29.394 USB, Beacon 29.352 USB
Uosat F 24 Oct 06:36:09 06:41:09 60° 291° (WNW) 06:46:06 435.120 FM
Sapphire 24 Oct 06:40:27 06:45:28 37° 319° (NW) 06:50:31 437.095 MHz 1200 baud AX-25 AFSK
Hamsat 24 Oct 06:42:23 06:46:08 31° 95° (E) 06:49:54 145.90 MHz
JAS-2 24 Oct 06:48:14 06:55:52 63° 100° (E) 07:03:38 435.800 - 435.900 CW/SSB, 435.910 FM
PCSat 24 Oct 07:03:48 07:08:26 28° 325° (NW) 07:13:06 145.825 MHz
AO-7 24 Oct 07:09:50 07:17:51 55° 300° (WNW) 07:25:52 29.400 - 29.500 MHz
STRAND 1 24 Oct 07:29:14 07:34:21 69° 257° (WSW) 07:39:31 ?
Saudisat 1A 24 Oct 07:41:58 07:44:30 15° 112° (ESE) 07:47:02 436.775 MHz
